Zurück zum Katalog

THORAD AGENA D DEB

AktivLEO
NORAD 4158·DEBRIS·🇺🇸 United States

Gestartet Sep 30, 1969 von Vandenberg Space Force Base

Loading…

Nächste Überflüge (nächste 24 Stunden)

TLE

AktuellSource: Space-Track

Epoche: Sep 14, 2026, 19:59 UTC

1 04158U 69082AA  26257.83268416 -.00000186  00000-0 -69442-4 0  9999
2 04158  70.0357 302.5177 0042661  59.5153 301.0164 14.13005721927359

Verfolge THORAD AGENA D DEB in Echtzeit mit AllMySat

Download on the App Store